BREEZE-M DEB [TANK] (55843 NORAD) Tracking and Keplerian Element Data

This shows tracking and keplerian element data for the satellite.

Feedback or suggestion? Click here.




ElementValue
Catalog55843
NameBREEZE-M DEB [TANK]
Epoch Orbit33
Epoch Day84.43110741
Epoch Year2023
RAAN164.0968
Inclination48.7362
Eccentricity0.7230488
Argument of Perigee2.8021
Mean Anonmoly359.8013
Mean Motion2.27426677
Decay Rate3.61E-06
L11 55843U 23031C 23084.43110741 .00000361 00000+0 11584-2 0 9992
L22 55843 48.7362 164.0968 7230488 2.8021 359.8013 2.27426677 334



Live tracking and technical data element details for BREEZE-M DEB [TANK] (NORAD 55843). BREEZE-M DEB [TANK] can be tracked NOW for your location showing map with azimuth and elevation plus other details from your city location.







IsCatalogInMostPopularTable: catalog: 55843, numindb: 6
Update: records affected: 1



GetName: 55843 BREEZE-M DEB [TANK]

Hit Count: updated at: Tue, 06 Jun 2023 03:01:43 GMT